Regional Weather Roundup
Issued by NWS New Orleans/Baton Rouge, LA

Home | Current Version | Previous Version | Graphics & Text | Print | Product List | Glossary On
Versions: 1 2 3 4 5 6 7 8 9 10 11 12 13 14 15 16 17 18 19 20 21 22 23 24 25 26 27 28 29 30 31 32 33 34 35 36 37 38 39 40 41 42 43 44 45 46 47 48 49 50
865
ASUS44 KLIX 220901
RWRLIX
NEW ORLEANS REGIONAL WEATHER ROUNDUP
NATIONAL WEATHER SERVICE NEW ORLEANS LA
400 AM CDT FRI AUG 22 2014

NOTE: "FAIR" INDICATES FEW OR NO CLOUDS BELOW 12,000 FEET WITH NO
      SIGNIFICANT WEATHER AND/OR OBSTRUCTIONS TO VISIBILITY.
      SKY/WX - SKY CONDITION AND SIGNIFICANT WEATHER.
      TMP - AIR TEMPERATURE.     DP    - DEWPOINT TEMPERATURE.
      RH  - RELATIVE HUMIDITY.   PRES  - PRESSURE.
      HI  - HEAT INDEX.          WCI   - WIND CHILL INDEX.

*  THESE STATIONS ARE NOT NWS OR FAA STATIONS AND ARE NOT UNDER
   NWS QUALITY CONTROL.

LAZ038-040-048-061>063-065>067-069-221000-
SOUTHEAST LOUISIANA

CITY           SKY/WX    TMP DP  RH WIND       PRES   REMARKS
N.O. AUDUBON   NOT AVBL
N.O. INTL ARPT PTCLDY    76  72  87 CALM      30.08R
N.O. LAKEFRONT PTCLDY    81  75  82 SW3       30.08S
N.O. DOWNTOWN*   N/A     79  70  73 CALM      30.08S
SLIDELL        PTCLDY    75  71  87 N5        30.08R
BATON ROUGE    PTCLDY    75  73  93 CALM      30.08S
BOOTHVILLE     CLEAR     81  78  91 NW3       30.07S
BELLE CHASSE   PTCLDY    74  71  91 CALM      30.07S
BOGALUSA*        N/A     75  71  87 CALM      30.10S
GALLIANO*      NOT AVBL
NEW ROADS*       N/A     72  71  98 CALM      30.08S
GONZALES*        N/A     73  73  99 CALM      30.08S
HAMMOND*       NOT AVBL
HOUMA*         CLEAR     73  71  91 CALM      30.07S
PORT FOURCHON* SUNNY     84  75  74 CALM      30.08S

$$

MSZ070-080>082-221000-
SOUTHERN MISSISSIPPI

CITY           SKY/WX    TMP DP  RH WIND       PRES   REMARKS
MCCOMB         CLEAR     73  72  96 CALM      30.10R
GULFPORT       PTCLDY    78  75  90 N3        30.07R
BILOXI         PTCLDY    80  75  85 VRB2      30.07S
PASCAGOULA     CLEAR     76  74  93 CALM      30.07S

$$

COASTAL OBSERVATIONS
LAKE AND NEARSHORE STATIONS

STATION/POSITION TIME  TEMP    WIND        PRES    WAVE
                       AIR SEA DIR/SP/G            HT/PER
                 (UTC) (F)     (DEG/KT/KT) (MB)    (FT/S)
PASCAGOULA       0800   82     310/  5/  7 1017.7
WAVELAND YACHT   0800   79     300/  3/  4 1017.7
GRAND ISLE       0800   84 89  250/  3/  4 1018.8
SOUTHWEST PASS   0800   85 88  240/  5/  6 1018.5
NEW CANAL        0800   80 84  250/  3/  4 1018.7
SHELL BEACH      0800   81 82  280/  5/  6 1018.1

OFFSHORE STATIONS

STATION/POSITION TIME  TEMP    WIND        PRES    WAVE
                       AIR SEA DIR/SP/G            HT/PER
                 (UTC) (F)     (DEG/KT/KT) (MB)    (FT/S)
64 S DAUPHIN ISL 0842   85 89  270/  6/  8 1018.2

$$




USA.gov is the U.S. government's official web portal to all federal, state and local government web resources and services.